Regional Weather Roundup
Issued by NWS

Home | Current Version | Previous Version | Text Only | Print | Product List | Glossary On
Versions: 1 2 3 4 5 6 7 8 9 10 11 12 13 14 15 16 17 18 19 20 21 22 23 24 25 26 27 28 29 30 31 32 33 34 35 36 37 38 39 40 41 42 43 44 45 46 47 48 49 50
000
ASUS46 KLOX 220612
RWRCA

SOUTHERN CALIFORNIA WEATHER ROUNDUP
NATIONAL WEATHER SERVICE OXNARD CALIFORNIA
1000 PM PST SUN DEC 21 2014

NOTE: "FAIR" INDICATES FEW OR NO CLOUDS BELOW 12,000 FEET WITH NO
SIGNIFICANT WEATHER AND/OR OBSTRUCTIONS TO VISIBILITY.

  -  STATIONS PRECEEDED BY AN ASTERISK (*) ARE NOT NWS OR FAA
     STATIONS AND ARE NOT SUBJECT TO NWS AND FAA QUALITY CONTROL.

CAZ041-042-087-220700-
LA AND ORANGE COUNTY COASTAL AREAS


CITY           SKY/WX    TMP DP  RH WIND       PRES   REMARKS
L.A. DOWNTOWN  MOCLDY    57  53  86 CALM      30.05S FOG
L.A. AIRPORT   CLOUDY    59  55  87 CALM      30.06S
LONG BEACH     MOCLDY    58  55  90 NW5       30.06S FOG

CITY           SKY/WX    TMP DP  RH WIND       PRES   REMARKS
AVALON           N/A     55 N/A N/A S2          N/A
FULLERTON      MOCLDY    56  52  86 CALM      30.05S FOG
*GETTY CENTER    N/A     63  45  51 N13G26      N/A
HAWTHORNE      CLOUDY    60  55  83 CALM      30.06S HAZE
*LEO CARRILLO    N/A     70  47  44 N7          N/A
*LOS ALAMITOS  FAIR      55  55  99 NW3       30.06S
*REDONDO BEACH   N/A     56  52  86 CALM      30.05S
SANTA ANA      MOCLDY    60  54  80 CALM      30.05F FOG
STA MONICA APT CLOUDY    59  54  83 E3        30.06S HAZE
*STA MON PIER    N/A     62  56  83 NE2       30.05R
*UCLA            N/A     59  52  77 NE5       30.03S

$$

CAZ547-548-048-220700-
LA COUNTY VALLEYS AND INLAND EMPIRE


CITY           SKY/WX    TMP DP  RH WIND       PRES   REMARKS
BURBANK        MOCLDY    57  50  77 NE3       30.06R
VAN NUYS       CLOUDY    66  45  46 N10       30.07R

CITY           SKY/WX    TMP DP  RH WIND       PRES   REMARKS
CORONA AIRPORT MOCLDY    49  49 100 CALM      30.07S FOG
*CHATSWORTH      N/A     66  48  51 E12       30.05S
CHINO          MOCLDY    53  50  89 CALM      30.07F FOG
*CLAREMONT       N/A     50  43  78 NE2         N/A
MARCH AFB      MOCLDY    51  50  98 E1        30.08R
*NORTHRIDGE      N/A     64  43  45 S6G12       N/A
ONTARIO        PTCLDY    56  48  74 N5        30.06F
*PASADENA        N/A     57  50  77 CALM        N/A
RIVERSIDE      MOCLDY    56  49  77 E5        30.06S
SAN BERNARDINO NOT AVBL
*SAN GABRIEL     N/A     56  49  79 CALM      30.04S
*SAN RAFAEL HI   N/A     58  43  58 SW6         N/A
*SAUGUS          N/A     60  47  61 N8          N/A
*WHITEMAN AP   NOT AVBL
*WOODLAND HILL   N/A     66  45  45 NW13G18     N/A

$$

CAZ054-055-220700-
LA AND SAN BERNARDINO COUNTY MOUNTAINS


CITY           SKY/WX    TMP DP  RH WIND       PRES   REMARKS
*BIG BEAR AIRP PTCLDY    34  28  80 CALM      30.30R
MT WILSON NWS    N/A     54  27  35 SE1         N/A
SANDBERG       CLOUDY    48  46  93 VRB5      30.28S

$$

CAZ028-029-059-060-099-220700-
ANTELOPE VALLEY AND SURROUNDING AREAS


CITY           SKY/WX    TMP DP  RH WIND       PRES   REMARKS
LANCASTER      PTCLDY    52  47  83 W23G31    30.19F
PALMDALE       PTCLDY    52  46  80 NW13      30.21R
*POPPY PARK      N/A     53  47  81 W25         N/A

CITY           SKY/WX    TMP DP  RH WIND       PRES   REMARKS
29 PALMS       CLOUDY    57  45  64 NW7       30.18S
BARSTOW/DAGGET PTCLDY    49  44  83 W14       30.16S
BISHOP         PTCLDY    54  33  45 NW13      30.22R
EDWARDS AFB    CLEAR     43  42  99 E2        30.18R
MOJAVE         FAIR      48  43  81 CALM      30.20R
NEEDLES        MOCLDY    50  40  68 CALM      30.06S
VICTORVILLE    PTCLDY    48  43  81 CALM      30.20R

$$

CAZ039-040-220700-
VENTURA AND SANTA BARBARA COUNTY COAST


CITY           SKY/WX    TMP DP  RH WIND       PRES   REMARKS
CAMARILLO      CLOUDY    59  50  72 E3        30.05S
OXNARD AIRPORT CLOUDY    59  50  72 CALM      30.05S
*POINT MUGU    CLOUDY    57  52  83 NE8       30.06R
SBA APT/GOLETA MOCLDY    72  46  39 NE21G28   30.04F
*SANTA BARBARA   N/A     70  45  40 SW3       30.13R
*VENTURA         N/A     57  50  79 NW3       30.08F

$$

CAZ044-045-220700-
VENTURA COUNTY VALLEYS


CITY           SKY/WX    TMP DP  RH WIND       PRES   REMARKS
*SIMI VALLEY     N/A     65  49  57 E8        30.06S
*OJAI            N/A     57  49  74 CALM      30.03S
*FILLMORE        N/A     55  51  83 CALM      29.98R

$$

CAZ053-220700-
VENTURA COUNTY MOUNTAINS


CITY           SKY/WX    TMP DP  RH WIND       PRES   REMARKS
*LOCKWOOD VLY    N/A     39  39 100 CALM        N/A

$$

CAZ034-035-036-220700-
CENTRAL COAST AND SANTA YNEZ VALLEY


CITY           SKY/WX    TMP DP  RH WIND       PRES   REMARKS
SAN LUIS OBISP MOCLDY    61  54  77 NW5       30.22S
SANTA MARIA    MOCLDY    62  53  72 NW9       30.21S

CITY           SKY/WX    TMP DP  RH WIND       PRES   REMARKS
*CAL POLY SLO    N/A     63  55  77 W6G12       N/A
*LOMPOC        CLEAR     61  52  72 W10       30.19F
*PISMO BEACH     N/A     63  57  79 W3        30.22S
*SANTA YNEZ    FAIR      55  50  82 SW6       30.15S

$$

CAZ037-038-051-220700-
SAN LUIS OBISPO COUNTY INTERIOR AND CUYAMA VALLEY


CITY           SKY/WX    TMP DP  RH WIND       PRES   REMARKS
*CUYAMA          N/A     53  51  92 SE8       30.26S
PASO ROBLES    CLEAR     54  51  90 NE5       30.25S

$$

CAZ032-033-061-220700-
SOUTHERN DESERTS


CITY           SKY/WX    TMP DP  RH WIND       PRES   REMARKS
BLYTHE         MOCLDY    51  47  86 SE6       30.05F
IMPERIAL       MOCLDY    53  45  74 S3        30.06S
PALM SPRINGS   CLOUDY    57  48  72 NW3       30.08S
THERMAL        CLOUDY    50  44  80 CALM      30.05S

$$

ELSEWHERE ACROSS THE WESTERN UNITED STATES AND MEXICO


CITY           SKY/WX    TMP DP  RH WIND       PRES   REMARKS
DENVER, CO     CLOUDY    32  32 100 NE7       29.67F WCI  26
GRAND CANYON,  CLOUDY    39  32  76 VRB3      30.14S
HONOLULU, HI   MOCLDY    75  66  73 N6        29.99R
KAHULUI, MAUI  CLEAR     72  64  78 S5        30.00R
LAKE TAHOE, CA CLEAR     33  29  85 S5        30.36R WCI  29
LAS VEGAS, NV  CLOUDY    50  39  66 S10       30.05R
MAMMOTH LAKES, FAIR      43  21  42 N5        30.35S
MEXICO CITY, M MOCLDY    61  39  44 E7        30.26F
PHOENIX, AZ    CLOUDY    54  43  66 E3        30.05R
PORTLAND, OR   LGT RAIN  52  50  93 S9        30.16S
RENO, NV       PTCLDY    52  39  61 NW3       30.30S
SALT LAKE CITY CLOUDY    42  38  85 W5        30.04R
SAN DIEGO, CA  MOCLDY    60  55  83 N3        30.07S
SAN FRANCISCO, CLOUDY    59  59 100 W14       30.29R
SAN JOSE, CA   CLOUDY    59  56  89 W7        30.29S
SEATTLE, WA    CLOUDY    50  46  86 SW13      30.08F
TIJUANA, MEX   PTCLDY    55  52  88 CALM      30.08S

$$

STATION/POSITION TIME  TEMP    WIND        PRES    VSBY  WAVE
                       AIR SEA DIR/SP/G                  HT/PER
                 (UTC) (F)     (DEG/KT/KT) (MB)    (MI)  (FT/S)
POINT ARGUELLO B NOT AVBL
WEST SANTA BARBA 0600   66 63  300/ 17/ 23 1019.7R        10/14
POINT CONCEPTION NOT AVBL
EAST SANTA BARBA NOT AVBL
SANTA MONICA BAY 0600   66 64  300/  6/ 10 1017.8S         5/ 8


USA.gov is the U.S. government's official web portal to all federal, state and local government web resources and services.